Location: Macerata
(43.3000°N, 13.4500°E)
Time: 13:20:38
(UTC+02:00)

ISS - Visible Passes

Search period start: 11 May 2021 00:00
Search period end: 21 May 2021 00:00
Orbit: 417 x 422 km, 51.6° (Epoch: 11 May)

Date Brightness Start Highest point End Pass type
(mag) Time Alt. Az. Time Alt. Az. Time Alt. Az.
11 May -1.3 02:04:21 22° N 02:04:21 22° N 02:06:48 10° NE visible
11 May -1.2 03:39:01 10° NW 03:41:42 21° N 03:44:23 10° ENE visible
12 May -0.9 01:18:16 17° NNE 01:18:16 17° NNE 01:19:22 10° NE visible
12 May -1.0 02:51:30 10° NW 02:54:04 20° N 02:56:38 10° NE visible
12 May -2.3 04:28:16 10° NW 04:31:30 41° NNE 04:34:43 10° E visible
13 May -1.0 02:05:02 16° NNW 02:06:25 19° N 02:08:57 10° NE visible
13 May -1.8 03:40:54 10° NW 03:43:58 31° NNE 03:47:01 10° E visible
14 May -1.1 01:18:38 20° N 01:18:46 20° N 01:21:22 10° NE visible
14 May -1.4 02:53:31 10° NW 02:56:22 25° NNE 02:59:15 10° ENE visible
14 May -3.8 04:30:08 10° WNW 04:33:31 87° SW 04:36:54 10° SE visible
14 May -2.2 21:15:05 10° S 21:17:22 17° SE 21:19:41 10° E visible
14 May -3.4 22:50:31 10° WSW 22:53:52 66° NNW 22:55:36 26° NE visible
15 May -1.2 00:28:26 10° WNW 00:31:09 22° N 00:33:52 10° NE visible
15 May -1.1 02:06:05 10° NW 02:08:46 21° N 02:11:27 10° ENE visible
15 May -3.2 03:42:44 10° NW 03:46:04 60° NNE 03:49:25 10° ESE visible
15 May -3.9 22:03:04 10° SW 22:06:26 79° SE 22:09:48 10° ENE visible
15 May -1.5 23:40:39 10° WNW 23:43:32 26° NNW 23:46:26 10° NE visible
16 May -1.0 01:18:34 10° NW 01:21:08 20° N 01:23:42 10° NE visible
16 May -2.4 02:55:21 10° NW 02:58:34 41° NNE 03:01:48 10° E visible
16 May -3.0 04:32:17 10° WNW 04:35:19 31° SW 04:38:21 10° SSE visible
16 May -3.5 21:15:49 10° SW 21:19:03 47° SE 21:22:18 10° ENE visible
16 May -1.9 22:52:53 10° W 22:55:57 32° NNW 22:59:03 10° NE visible
17 May -1.0 00:30:57 10° NW 00:33:29 19° N 00:36:01 10° NE visible
17 May -1.9 02:07:58 10° NW 02:11:02 31° NNE 02:14:05 10° E visible
17 May -3.7 03:45:03 13° WNW 03:47:59 52° SW 03:51:16 10° SE visible
17 May -2.5 22:05:11 10° W 22:08:25 44° NNW 22:11:40 10° NE visible
17 May -1.0 23:43:16 10° NW 23:45:50 20° N 23:48:25 10° NE visible
18 May -1.4 01:20:35 10° NW 01:22:57 24° N 01:22:57 24° N visible
18 May -3.3 21:17:35 10° WSW 21:20:56 65° NNW 21:24:17 10° NE visible
18 May -1.2 22:55:30 10° WNW 22:58:12 22° N 23:00:55 10° NE visible
19 May -1.2 00:33:08 10° NW 00:35:50 21° N 00:36:34 20° NNE visible
19 May -1.4 22:07:42 10° WNW 22:10:35 26° NNW 22:13:29 10° NE visible
19 May -1.1 23:45:37 10° NW 23:48:11 20° N 23:50:24 12° NE visible
20 May -1.1 01:22:24 10° NW 01:23:19 17° NW 01:23:19 17° NW visible
20 May -1.8 21:19:56 10° W 21:23:00 32° NNW 21:26:05 10° NE visible
20 May -1.0 22:58:01 10° NW 23:00:32 19° N 23:03:04 10° NE visible
